Location: Stanford
(52.2833°N, 2.4333°W)
Time: 19:50:26
(UTC+00:00)

Cosmos 2227 - Pass Details

Date: 22 January 2021
Orbit: 832 x 863 km, 71.0° (Epoch: 27 February)

Event Time Altitude Azimuth Distance (km) Brightness Sun altitude
Rises 17:32:00 0° 210° (SSW) 3,378 8.3 -8.1°
Reaches altitude 10° 17:34:25 10° 211° (SSW) 2,451 7.5 -8.4°
Maximum altitude 17:40:04 86° 301° (WNW) 854 4.3 -9.2°
Drops below altitude 10° 17:45:48 10° 31° (NNE) 2,488 6.2 -10.1°
Enters shadow 17:47:03 - 31° (NNE) 2,963 6.6 -10.2°
